Date String (YYYY-MM-DD hh:mm:ss) UTC,Instrument flags,Ambient pressure (hPa),Sample flow (lpm),Bypass flow (lpm),Sample temperature (°C),Ambient temperature (°C),ASC tube jacket temperature (°C),LED temperature (°C),Box temperature (°C),Sample RH (%),Span deviation,Mass concentration (μg/m³),Mass concentration (μg/m³),Mass concentration (μg/m³)
DateTimeUTC,F1_M11,P_M11,Q1_M11,Q2_M11,T1_M11,T2_M11,T3_M11,T4_M11,T5_M11,U1_M11,ZSPAN_M11,X0_M11,X2_M11,X1_M11
2022-09-24 16:00:00,,0831.1,5.01,0.00,30.5,29.2,00.0,39.3,32.4,15.0,0000.0,0005.85,0002.81,0002.01
2022-09-24 16:01:00,,0831.1,5.00,0.00,30.6,29.3,00.0,39.3,32.4,15.4,0000.0,0005.76,0002.79,0002.01
2022-09-24 16:02:00,,0831.1,5.00,0.00,30.6,29.3,00.0,39.3,32.4,15.2,0000.0,0005.75,0002.78,0002.01
2022-09-24 16:03:00,,0831.1,5.00,0.00,30.6,29.4,00.0,39.3,32.5,15.2,0000.0,0005.96,0002.79,0002.01
2022-09-24 16:04:00,,0831.1,5.00,0.00,30.6,29.4,00.0,39.3,32.5,15.7,0000.0,0005.74,0002.80,0002.01
2022-09-24 16:05:00,,0831.1,5.00,0.00,30.7,29.4,00.0,39.3,32.5,15.4,0000.0,0005.17,0002.80,0002.02
2022-09-24 16:06:00,,0831.1,5.00,0.00,30.7,29.3,00.0,39.3,32.5,15.4,0000.0,0005.11,0002.77,0002.02
2022-09-24 16:07:00,,0831.1,5.00,0.00,30.7,28.0,00.0,39.3,32.4,15.0,0000.0,0005.28,0002.78,0002.02
2022-09-24 16:08:00,,0831.0,5.00,0.00,30.6,27.1,00.0,39.2,32.3,14.9,0000.0,0005.33,0002.79,0002.03
2022-09-24 16:09:00,,0831.0,5.00,0.00,30.6,27.2,00.0,39.2,32.2,14.4,0000.0,0005.35,0002.81,0002.03
2022-09-24 16:10:00,,0831.0,5.01,0.00,30.5,27.5,00.0,39.2,32.1,14.2,0000.0,0005.57,0002.79,0002.03
2022-09-24 16:11:00,,0831.0,5.00,0.00,30.4,27.8,00.0,39.2,32.1,13.7,0000.0,0006.42,0002.82,0002.02
2022-09-24 16:12:00,,0831.0,4.99,0.00,30.4,28.1,00.0,39.1,32.1,13.4,0000.0,0006.49,0002.86,0002.01
2022-09-24 16:13:00,,0831.0,5.01,0.00,30.4,28.3,00.0,39.1,32.1,13.8,0000.0,0006.37,0002.85,0002.01
2022-09-24 16:14:00,,0831.0,4.99,0.00,30.4,28.5,00.0,39.1,32.1,14.1,0000.0,0006.08,0002.79,0002.00
2022-09-24 16:15:00,,0831.1,5.02,0.00,30.4,28.6,00.0,39.1,32.1,14.2,0000.0,0005.89,0002.77,0002.00
2022-09-24 16:16:00,,0831.1,4.99,0.00,30.4,28.8,00.0,39.1,32.2,14.2,0000.0,0005.88,0002.73,0002.00
2022-09-24 16:17:00,,0831.2,5.00,0.00,30.4,28.9,00.0,39.1,32.2,14.5,0000.0,0006.07,0002.79,0002.02
2022-09-24 16:18:00,,0831.2,5.00,0.00,30.4,29.0,00.0,39.1,32.3,14.5,0000.0,0006.04,0002.83,0002.04
2022-09-24 16:19:00,,0831.2,4.99,0.00,30.4,29.1,00.0,39.1,32.3,14.5,0000.0,0006.79,0002.81,0002.05
2022-09-24 16:20:00,,0831.2,5.00,0.00,30.5,29.2,00.0,39.2,32.3,14.8,0000.0,0007.86,0002.84,0002.06
2022-09-24 16:21:00,,0831.2,5.01,0.00,30.5,29.2,00.0,39.2,32.3,15.0,0000.0,0007.80,0002.88,0002.07
2022-09-24 16:22:00,,0831.2,5.00,0.00,30.5,29.3,00.0,39.2,32.4,15.1,0000.0,0007.59,0002.86,0002.08
2022-09-24 16:23:00,,0831.2,5.00,0.00,30.5,29.4,00.0,39.2,32.4,14.9,0000.0,0007.73,0002.84,0002.08
2022-09-24 16:24:00,,0831.2,5.00,0.00,30.6,29.3,00.0,39.2,32.4,14.7,0000.0,0007.90,0002.86,0002.09
2022-09-24 16:25:00,,0831.2,5.01,0.00,30.6,28.1,00.0,39.2,32.4,14.5,0000.0,0007.91,0002.86,0002.10
2022-09-24 16:26:00,,0831.2,5.00,0.00,30.5,27.1,00.0,39.1,32.2,14.4,0000.0,0007.91,0002.85,0002.12
2022-09-24 16:27:00,,0831.2,5.00,0.00,30.5,27.1,00.0,39.1,32.2,14.7,0000.0,0007.95,0002.90,0002.14
2022-09-24 16:28:00,,0831.2,5.01,0.00,30.4,27.4,00.0,39.1,32.0,14.7,0000.0,0007.83,0002.90,0002.15
2022-09-24 16:29:00,,0831.2,5.01,0.00,30.3,27.7,00.0,39.0,32.0,15.1,0000.0,0007.72,0002.85,0002.15
2022-09-24 16:30:00,,0831.2,5.01,0.00,30.3,28.0,00.0,39.0,32.0,15.3,0000.0,0007.51,0002.86,0002.15
2022-09-24 16:31:00,,0831.2,5.00,0.00,30.3,28.3,00.0,39.0,32.1,15.2,0000.0,0005.98,0002.83,0002.14
2022-09-24 16:32:00,,0831.2,5.01,0.00,30.3,28.5,00.0,39.0,32.1,15.0,0000.0,0005.61,0002.77,0002.14
2022-09-24 16:33:00,,0831.2,4.99,0.00,30.3,28.7,00.0,39.0,32.1,15.3,0000.0,0005.27,0002.75,0002.14
2022-09-24 16:34:00,,0831.2,5.02,0.00,30.3,28.8,00.0,39.0,32.1,15.1,0000.0,0004.88,0002.76,0002.15
2022-09-24 16:35:00,,0831.1,5.00,0.00,30.3,28.9,00.0,39.0,32.2,15.0,0000.0,0004.71,0002.82,0002.16
2022-09-24 16:36:00,,0831.2,4.99,0.00,30.3,29.0,00.0,39.0,32.2,14.9,0000.0,0005.20,0002.89,0002.17
2022-09-24 16:37:00,,0831.1,5.01,0.00,30.4,29.1,00.0,39.0,32.2,15.0,0000.0,0005.15,0002.88,0002.17
2022-09-24 16:38:00,,0831.2,5.00,0.00,30.4,29.2,00.0,39.1,32.3,15.0,0000.0,0005.09,0002.84,0002.16
2022-09-24 16:39:00,,0831.2,4.99,0.00,30.4,29.2,00.0,39.1,32.3,15.0,0000.0,0005.52,0002.86,0002.15
2022-09-24 16:40:00,,0831.2,5.01,0.00,30.4,29.3,00.0,39.1,32.3,15.0,0000.0,0005.55,0002.87,0002.17
2022-09-24 16:41:00,,0831.2,4.99,0.00,30.5,29.4,00.0,39.1,32.4,14.8,0000.0,0005.43,0002.87,0002.17
2022-09-24 16:42:00,,0831.2,4.99,0.00,30.5,29.3,00.0,39.1,32.4,14.4,0000.0,0005.96,0002.90,0002.18
2022-09-24 16:43:00,,0831.2,5.00,0.00,30.5,28.3,00.0,39.1,32.4,14.4,0000.0,0007.88,0002.88,0002.18
2022-09-24 16:44:00,,0831.2,5.01,0.00,30.5,27.1,00.0,39.1,32.2,14.7,0000.0,0008.22,0002.83,0002.18
2022-09-24 16:45:00,,0831.2,5.01,0.00,30.4,27.0,00.0,39.0,32.1,14.7,0000.0,0008.19,0002.82,0002.18
2022-09-24 16:46:00,,0831.2,4.99,0.00,30.3,27.3,00.0,39.0,32.0,15.1,0000.0,0008.14,0002.78,0002.19
2022-09-24 16:47:00,,0831.2,4.99,0.00,30.3,27.6,00.0,39.0,32.0,14.6,0000.0,0007.90,0002.75,0002.19
2022-09-24 16:48:00,,0831.2,5.01,0.00,30.3,28.0,00.0,39.0,32.0,14.8,0000.0,0008.02,0002.80,0002.19
2022-09-24 16:49:00,,0831.2,4.99,0.00,30.2,28.2,00.0,39.0,32.0,14.9,0000.0,0008.09,0002.84,0002.18
2022-09-24 16:50:00,,0831.2,5.02,0.00,30.2,28.4,00.0,39.0,32.0,15.3,0000.0,0008.32,0002.80,0002.17
2022-09-24 16:51:00,,0831.2,5.00,0.00,30.2,28.6,00.0,39.0,32.1,15.1,0000.0,0008.54,0002.84,0002.16
2022-09-24 16:52:00,,0831.2,4.99,0.00,30.3,28.7,00.0,39.0,32.1,14.9,0000.0,0008.63,0002.87,0002.15
2022-09-24 16:53:00,,0831.1,5.00,0.00,30.3,28.9,00.0,39.0,32.1,14.8,0000.0,0008.57,0002.89,0002.16
2022-09-24 16:54:00,,0831.2,5.00,0.00,30.3,29.0,00.0,39.0,32.2,14.9,0000.0,0007.32,0002.94,0002.16
2022-09-24 16:55:00,,0831.2,5.01,0.00,30.3,29.1,00.0,39.0,32.2,14.7,0000.0,0006.54,0003.00,0002.17
2022-09-24 16:56:00,,0831.2,5.00,0.00,30.4,29.2,00.0,39.0,32.2,14.5,0000.0,0006.66,0003.03,0002.19
2022-09-24 16:57:00,,0831.2,5.00,0.00,30.4,29.2,00.0,39.0,32.3,14.6,0000.0,0006.69,0003.01,0002.18
2022-09-24 16:58:00,,0831.1,5.00,0.00,30.4,29.3,00.0,39.0,32.3,14.6,0000.0,0006.62,0002.97,0002.17
2022-09-24 16:59:00,,0831.1,4.99,0.00,30.4,28.9,00.0,39.1,32.3,15.0,0000.0,0007.05,0002.96,0002.17
